GW2778 Weather Reports


time (UTC)temp
C
wind
direction
speed
KPH
gust
KPH
rain 1hr
cm
rain 24hr
cm
rain mn
cm
humidity
%
barometer
mb
20260507060922 8 285 1.6 1.6 0.00 0.00 0.00 95 1007.0
20260507060419 8 327 0.0 1.6 0.00 0.00 0.00 95 1007.0
20260507055916 8 140 1.6 1.6 0.00 0.00 0.00 95 1006.8
20260507055410 8 312 0.0 0.0 0.00 0.00 0.00 95 1006.9
20260507054902 8 338 0.0 0.0 0.00 0.00 0.00 95 1007.0
20260507054358 8 312 3.2 3.2 0.00 0.00 0.00 94 1006.9
20260507053855 8 297 3.2 4.8 0.00 0.00 0.00 94 1007.0
20260507053353 8 309 1.6 3.2 0.00 0.00 0.00 93 1007.0
20260507052852 8 320 1.6 1.6 0.00 0.00 0.00 93 1007.2
20260507052348 8 236 4.8 4.8 0.00 0.00 0.00 93 1006.9
20260507051846 8 328 1.6 1.6 0.00 0.00 0.00 93 1006.9
20260507051343 8 314 3.2 3.2 0.00 0.00 0.00 93 1007.0
20260507050834 8 296 1.6 1.6 0.00 0.00 0.00 93 1006.9
20260507050330 8 299 6.4 6.4 0.00 0.00 0.00 93 1006.9
20260507045827 8 332 1.6 3.2 0.00 0.00 0.00 93 1007.0
20260507045324 8 299 4.8 6.4 0.00 0.00 0.00 93 1007.3
20260507044821 8 334 3.2 3.2 0.00 0.00 0.00 93 1007.0
20260507044318 8 348 3.2 4.8 0.00 0.00 0.00 93 1006.9
20260507043814 8 351 3.2 3.2 0.00 0.00 0.00 93 1006.9
20260507043310 8 329 1.6 1.6 0.00 0.00 0.00 94 1007.0
20260507042807 8 331 3.2 3.2 0.00 0.00 0.00 94 1007.0
20260507042306 8 238 1.6 1.6 0.00 0.00 0.00 94 1006.8
20260507041800 8 295 3.2 3.2 0.00 0.00 0.00 95 1006.5
20260507041256 8 280 6.4 6.4 0.00 0.00 0.00 94 1006.5
20260507040753 8 287 3.2 3.2 0.00 0.00 0.00 95 1006.0
20260507040249 8 30 1.6 1.6 0.00 0.00 0.00 95 1005.9
20260507035745 8 16 3.2 4.8 0.00 1.07 1.07 95 1005.7
20260507035241 8 326 3.2 3.2 0.00 1.07 1.07 94 1005.9
20260507034739 8 329 6.4 6.4 0.00 1.07 1.07 94 1006.6
20260507034235 8 277 3.2 3.2 0.00 1.07 1.07 95 1007.0
20260507033734 8 307 3.2 3.2 0.00 1.07 1.07 95 1007.1
20260507033231 8 308 1.6 1.6 0.00 1.07 1.07 95 1006.9
20260507032728 8 326 1.6 1.6 0.00 1.07 1.07 96 1006.9
20260507032224 8 327 0.0 0.0 0.00 1.07 1.07 96 1007.0
20260507031721 8 36 4.8 4.8 0.00 1.07 1.07 96 1006.9
20260507031217 8 21 6.4 6.4 0.00 1.07 1.07 96 1006.8
20260507030714 8 323 1.6 3.2 0.00 1.07 1.07 96 1006.7
20260507030212 8 349 1.6 3.2 0.00 1.07 1.07 96 1006.5
20260507025709 8 9 3.2 3.2 0.00 1.07 1.07 96 1006.6
20260507025206 8 308 1.6 1.6 0.00 1.07 1.07 96 1006.8
20260507024704 8 328 0.0 0.0 0.00 1.07 1.07 96 1006.7
20260507024201 8 39 4.8 4.8 0.00 1.07 1.07 97 1006.8
20260507023656 8 11 0.0 0.0 0.00 1.07 1.07 97 1006.2
20260507023154 8 314 1.6 1.6 0.00 1.07 1.07 97 1006.2
20260507022651 8 334 4.8 4.8 0.00 1.07 1.07 97 1006.7
20260507022146 9 341 1.6 3.2 0.00 1.07 1.07 97 1006.8
20260507021643 9 291 3.2 3.2 0.00 1.07 1.07 97 1006.8
20260507021138 9 22 1.6 1.6 0.00 1.07 1.07 97 1006.6
20260507020637 9 348 1.6 1.6 0.00 1.07 1.07 96 1006.7
20260507020133 9 14 3.2 3.2 0.00 1.07 1.07 96 1006.9
20260507015631 10 28 6.4 9.7 0.00 1.07 1.07 96 1006.8
20260507015128 10 324 1.6 3.2 0.00 1.07 1.07 95 1007.0
20260507014625 10 279 4.8 6.4 0.00 1.07 1.07 95 1007.1
20260507014121 10 295 1.6 1.6 0.00 1.07 1.07 95 1007.3
20260507013618 10 312 8.0 11.3 0.00 1.07 1.07 94 1007.3
20260507013115 10 289 3.2 4.8 0.00 1.07 1.07 94 1006.8
20260507012612 10 275 3.2 4.8 0.00 1.07 1.07 94 1006.8
20260507012107 10 348 8.0 11.3 0.00 1.07 1.07 93 1006.7
20260507011606 10 321 9.7 14.5 0.00 1.07 1.07 93 1006.8
20260507011102 11 273 6.4 6.4 0.00 1.07 1.07 93 1006.9
20260507010556 11 312 4.8 4.8 0.00 1.07 1.07 93 1006.6
20260507010053 11 263 1.6 3.2 0.00 1.07 1.07 93 1006.6
20260507005550 11 320 3.2 4.8 0.00 1.07 1.07 94 1006.4
20260507005046 11 302 3.2 4.8 0.00 1.07 1.07 93 1006.4
20260507004543 11 299 3.2 4.8 0.00 1.07 1.07 93 1006.2
20260507004041 11 327 4.8 4.8 0.00 1.07 1.07 93 1006.2
20260507003537 11 264 3.2 3.2 0.00 1.07 1.07 94 1006.2
20260507003032 11 310 8.0 9.7 0.00 1.07 1.07 94 1006.0
20260507002529 11 305 6.4 9.7 0.00 1.07 1.07 94 1005.9
20260507002025 11 291 3.2 3.2 0.00 1.07 1.07 94 1005.9
20260507001521 11 305 1.6 3.2 0.00 1.07 1.07 95 1005.7
20260507001019 11 307 1.6 3.2 0.00 1.07 1.07 95 1005.5
20260507000515 11 305 9.7 12.9 0.00 1.07 1.07 96 1005.4
20260507000011 11 313 6.4 6.4 0.00 1.07 1.07 97 1005.4
20260506235508 11 319 6.4 6.4 0.00 1.07 1.07 97 1005.4
20260506235004 12 287 3.2 6.4 0.00 1.07 1.07 98 1005.2
20260506234501 12 325 4.8 6.4 0.00 1.07 1.07 98 1005.2
20260506233958 12 299 3.2 4.8 0.00 1.07 1.07 98 1005.2
20260506233455 12 275 8.0 11.3 0.00 1.07 1.07 97 1004.8
20260506232951 12 312 4.8 6.4 0.00 1.07 1.07 96 1004.7
20260506232447 12 295 11.3 12.9 0.00 1.07 1.07 96 1004.7
20260506231938 13 317 3.2 4.8 0.00 1.07 1.07 96 1004.6
20260506231436 13 352 6.4 9.7 0.00 1.07 1.07 95 1004.6
20260506230933 13 298 9.7 14.5 0.00 1.07 1.07 95 1004.5
20260506230429 13 311 8.0 12.9 0.00 1.07 1.07 95 1004.4
20260506225925 15 304 9.7 14.5 0.00 1.07 1.07 94 1004.3
20260506225423 15 301 8.0 9.7 0.00 1.07 1.07 94 1004.0
20260506224920 15 227 19.3 22.5 0.00 1.07 1.07 94 1004.2
20260506224417 15 219 4.8 4.8 0.00 1.07 1.07 95 1004.2
20260506223913 15 334 3.2 3.2 0.00 1.07 1.07 95 1003.7
20260506223409 15 288 9.7 12.9 0.00 1.07 1.07 94 1004.0
20260506222906 15 314 8.0 11.3 0.00 1.07 1.07 95 1004.1
20260506222402 15 284 6.4 9.7 0.00 1.07 1.07 95 1004.0
20260506221900 15 255 8.0 9.7 0.00 1.07 1.07 97 1003.8
20260506221357 15 305 6.4 11.3 0.00 1.07 1.07 99 1003.8
20260506220854 15 336 1.6 3.2 0.00 1.07 1.07 99 1003.9
20260506220350 15 197 1.6 1.6 0.00 1.07 1.07 99 1003.9
20260506215847 15 212 3.2 3.2 0.00 1.07 1.07 99 1003.5
20260506215342 15 324 3.2 3.2 0.00 1.07 1.07 99 1003.8
20260506214838 15 273 1.6 3.2 0.00 1.07 1.07 99 1003.7
20260506214335 15 282 3.2 4.8 0.00 1.07 1.07 99 1003.3
20260506213834 15 279 3.2 4.8 0.00 1.07 1.07 98 1003.4
20260506213331 15 296 4.8 6.4 0.00 1.07 1.07 98 1003.1
20260506212828 15 270 9.7 12.9 0.00 1.07 1.07 98 1003.2
20260506212323 15 184 4.8 4.8 0.00 1.07 1.07 98 1003.2
20260506211819 15 7 0.0 1.6 0.00 1.07 1.07 99 1003.1
20260506211315 15 283 4.8 6.4 0.00 1.07 1.07 99 1003.1
20260506210813 15 249 1.6 3.2 0.00 1.07 1.07 99 1002.8
20260506210309 15 159 4.8 4.8 0.00 1.07 1.07 98 1002.9
20260506205806 16 281 3.2 4.8 0.00 1.07 1.07 98 1003.0
20260506205305 16 272 3.2 4.8 0.00 1.07 1.07 98 1003.1
20260506204758 16 299 1.6 1.6 0.00 1.07 1.07 98 1002.7
20260506204257 16 347 6.4 9.7 0.00 1.07 1.07 98 1002.9
20260506203754 15 287 4.8 6.4 0.00 1.07 1.07 99 1002.9
20260506203251 15 213 11.3 14.5 0.00 1.07 1.07 99 1002.8
20260506202748 15 289 4.8 4.8 0.00 1.07 1.07 99 1002.9
20260506202245 15 228 6.4 6.4 0.00 1.07 1.07 99 1002.8
20260506201741 15 298 9.7 14.5 0.00 1.07 1.07 99 1002.7
20260506201238 15 245 8.0 11.3 0.00 1.07 1.07 99 1002.5
20260506200735 15 318 1.6 1.6 0.00 1.07 1.07 99 1002.7
20260506200232 15 192 9.7 12.9 0.00 1.07 1.07 99 1002.8
20260506195728 15 217 3.2 4.8 0.00 1.07 1.07 99 1002.9
20260506195225 15 288 3.2 6.4 0.00 1.07 1.07 99 1003.0
20260506194722 15 290 11.3 14.5 0.00 1.07 1.07 99 1002.9
20260506194218 15 215 4.8 4.8 0.00 1.07 1.07 99 1003.0
20260506193717 15 107 6.4 6.4 0.00 1.07 1.07 99 1002.7
20260506193213 15 286 3.2 4.8 0.00 1.07 1.07 99 1002.9
20260506192710 15 195 3.2 4.8 0.00 1.07 1.07 99 1002.9
20260506192206 15 300 3.2 4.8 0.00 1.07 1.07 99 1003.1
20260506191657 15 210 3.2 4.8 0.00 1.07 1.07 99 1003.0
20260506191153 15 202 6.4 6.4 0.00 1.07 1.07 99 1003.0
20260506190651 15 310 3.2 4.8 0.00 1.07 1.07 99 1003.1
20260506190147 15 306 1.6 3.2 0.00 1.07 1.07 99 1003.4
20260506185644 15 209 4.8 6.4 0.00 1.07 1.07 99 1003.2
20260506185140 15 196 3.2 3.2 0.00 1.07 1.07 99 1003.1
20260506184638 15 246 3.2 3.2 0.00 1.07 1.07 99 1003.3
20260506184135 15 6 0.0 0.0 0.00 1.07 1.07 99 1003.2
20260506183632 14 358 0.0 0.0 0.00 1.07 1.07 99 1003.2
20260506183128 15 95 1.6 3.2 0.00 1.07 1.07 99 1003.3
20260506182626 15 249 1.6 3.2 0.00 1.07 1.07 99 1003.2
20260506182122 14 289 0.0 0.0 0.00 1.07 1.07 99 1003.3
20260506181620 14 285 1.6 1.6 0.18 1.07 1.07 99 1003.4
20260506181117 14 252 1.6 1.6 0.18 1.07 1.07 99 1003.5
20260506180614 14 285 1.6 3.2 0.13 1.04 1.04 99 1003.7
20260506180110 14 265 6.4 6.4 0.13 1.04 1.04 99 1003.5
20260506175607 14 217 0.0 0.0 0.18 1.02 1.02 99 1003.5
20260506175103 14 232 3.2 3.2 0.18 1.02 1.02 99 1003.8
20260506174602 14 36 1.6 1.6 0.13 0.99 0.99 99 1003.7
20260506174057 13 220 4.8 4.8 0.13 0.99 0.99 99 1003.4
20260506173555 13 283 1.6 1.6 0.13 0.99 0.99 99 1003.7
20260506173052 13 233 6.4 9.7 0.18 0.97 0.97 99 1003.5
20260506172549 13 281 0.0 0.0 0.18 0.97 0.97 99 1003.5
20260506172040 13 190 3.2 4.8 0.00 0.94 0.94 99 1003.7
20260506171537 13 242 6.4 6.4 0.13 0.94 0.94 99 1003.8
20260506171035 13 320 0.0 0.0 0.30 0.94 0.94 99 1004.0
20260506170532 13 276 1.6 3.2 0.30 0.91 0.91 99 1003.8
20260506170030 13 190 3.2 3.2 0.13 0.89 0.89 99 1003.7
20260506165528 13 212 3.2 3.2 0.00 0.86 0.86 99 1004.0
20260506165024 13 309 0.0 1.6 0.00 0.86 0.86 99 1004.0
20260506164521 13 179 4.8 6.4 0.00 0.86 0.86 99 1004.0
20260506164018 13 304 11.3 14.5 0.00 0.86 0.86 99 1004.0
20260506163514 13 199 6.4 6.4 0.18 0.86 0.86 99 1003.9
20260506163010 13 185 1.6 3.2 0.18 0.86 0.86 99 1003.9
20260506162506 13 217 4.8 6.4 0.00 0.84 0.84 99 1004.0
20260506162003 13 170 4.8 6.4 0.00 0.84 0.84 99 1003.7
20260506161500 13 209 6.4 6.4 0.00 0.84 0.84 99 1003.8
20260506160952 13 161 3.2 3.2 0.00 0.84 0.84 99 1004.0
20260506160449 13 327 1.6 3.2 0.00 0.84 0.84 99 1004.0
20260506155947 13 59 6.4 6.4 0.00 0.84 0.84 99 1003.5
20260506155444 13 152 3.2 3.2 0.00 0.84 0.84 99 1003.9
20260506153616 13 177 6.4 6.4 0.13 0.84 0.84 99 1003.4
20260506153114 13 190 8.0 12.9 0.18 0.81 0.81 99 1003.7
20260506152611 13 78 14.5 24.1 0.30 0.81 0.81 99 1003.9
20260506152109 13 206 6.4 6.4 0.13 0.79 0.79 99 1004.0
20260506151607 13 323 4.8 9.7 0.30 0.79 0.79 99 1003.9
20260506151103 13 43 0.0 1.6 0.48 0.76 0.76 99 1004.0
20260506150600 13 186 6.4 9.7 0.43 0.71 0.71 99 1004.0
20260506150057 13 252 3.2 3.2 0.48 0.69 0.69 99 1004.1
20260506145554 13 236 9.7 12.9 0.61 0.66 0.66 99 1004.6
20260506145051 13 290 1.6 3.2 0.30 0.61 0.61 99 1004.4
20260506144548 13 171 6.4 9.7 0.13 0.56 0.56 99 1004.2
20260506144045 13 179 3.2 4.8 0.43 0.56 0.56 99 1003.9
20260506143543 13 238 3.2 4.8 0.61 0.53 0.53 99 1004.0
20260506143041 13 298 3.2 4.8 0.79 0.51 0.51 99 1003.8
20260506142538 13 204 0.0 1.6 0.36 0.43 0.43 99 1004.1
20260506142037 13 171 1.6 1.6 0.13 0.38 0.38 99 1004.1
20260506141534 13 296 6.4 6.4 0.30 0.38 0.38 99 1004.2
20260506141032 13 180 1.6 1.6 0.30 0.36 0.36 99 1004.2
20260506140529 13 246 8.0 11.3 0.13 0.33 0.33 99 1004.0
20260506140026 13 200 4.8 4.8 0.18 0.30 0.30 99 1004.0
20260506135523 13 227 3.2 3.2 0.30 0.30 0.30 99 1004.1
20260506135019 13 203 4.8 4.8 0.13 0.28 0.28 99 1004.4
20260506134516 13 177 9.7 11.3 0.00 0.25 0.25 99 1004.7
20260506134012 13 147 9.7 12.9 0.00 0.25 0.25 99 1004.4
20260506133509 13 194 4.8 4.8 0.18 0.25 0.25 99 1004.2
20260506133006 13 229 3.2 3.2 0.18 0.25 0.25 99 1004.4
20260506132503 13 135 4.8 4.8 0.18 0.25 0.25 98 1004.4
20260506132000 13 163 3.2 4.8 0.13 0.23 0.23 98 1004.4
20260506131457 13 148 3.2 3.2 0.13 0.23 0.23 99 1004.3
20260506130954 13 353 3.2 3.2 0.18 0.20 0.20 98 1004.6
20260506130450 13 203 3.2 4.8 0.30 0.20 0.20 98 1004.8
20260506125948 13 88 1.6 1.6 0.30 0.18 0.18 98 1004.8
20260506125446 13 206 4.8 6.4 0.30 0.15 0.15 97 1004.6
20260506124944 13 126 3.2 4.8 0.30 0.13 0.13 97 1004.8
20260506124441 13 178 4.8 4.8 0.18 0.10 0.10 96 1004.8
20260506123939 14 156 1.6 3.2 0.18 0.08 0.08 96 1005.0
20260506123437 14 18 0.0 1.6 0.18 0.08 0.08 95 1004.9
20260506122934 14 330 0.0 0.0 0.13 0.05 0.05 94 1004.9
20260506122431 14 314 1.6 1.6 0.13 0.05 0.05 93 1004.8
20260506121930 14 256 3.2 3.2 0.18 0.03 0.03 91 1005.1
20260506121426 15 281 3.2 4.8 0.18 0.03 0.03 91 1004.7
20260506120923 15 259 4.8 4.8 0.18 0.03 0.03 90 1004.9
20260506120420 15 227 3.2 4.8 0.00 0.00 0.00 89 1004.6
20260506115917 15 264 1.6 1.6 0.00 0.00 0.00 89 1004.5
20260506115415 15 214 3.2 4.8 0.00 0.00 0.00 88 1004.6
20260506114914 15 292 1.6 1.6 0.00 0.00 0.00 88 1004.6
20260506114411 15 25 3.2 4.8 0.00 0.00 0.00 87 1004.4
20260506113910 15 203 4.8 4.8 0.00 0.00 0.00 87 1004.5
20260506113407 15 196 3.2 3.2 0.00 0.00 0.00 86 1004.5
20260506112903 15 359 0.0 0.0 0.00 0.00 0.00 86 1004.3
20260506112401 15 271 0.0 1.6 0.00 0.00 0.00 86 1004.4
20260506111858 15 165 0.0 1.6 0.00 0.00 0.00 85 1004.3
20260506111356 15 99 1.6 1.6 0.00 0.00 0.00 84 1004.4
20260506110853 15 284 0.0 1.6 0.00 0.00 0.00 83 1004.4
20260506110350 15 194 3.2 4.8 0.00 0.00 0.00 83 1004.3
20260506105847 15 203 3.2 4.8 0.00 0.00 0.00 81 1004.5
20260506105343 15 137 3.2 3.2 0.00 0.00 0.00 80 1004.1
20260506104841 15 157 3.2 3.2 0.00 0.00 0.00 79 1004.4
20260506104338 16 110 1.6 1.6 0.00 0.00 0.00 77 1004.1
20260506103836 16 338 1.6 1.6 0.00 0.00 0.00 77 1004.2
20260506103333 16 60 0.0 0.0 0.00 0.00 0.00 77 1004.0
20260506102831 15 233 0.0 1.6 0.00 0.00 0.00 78 1003.8
20260506102328 16 232 4.8 6.4 0.00 0.00 0.00 75 1003.8
20260506101825 16 161 1.6 3.2 0.00 0.00 0.00 75 1003.7
20260506101321 16 245 3.2 3.2 0.00 0.00 0.00 75 1003.8
20260506100820 16 3 3.2 3.2 0.00 0.00 0.00 75 1003.7
20260506100318 16 88 3.2 3.2 0.00 0.00 0.00 75 1003.5
20260506095816 16 197 3.2 3.2 0.00 0.00 0.00 73 1003.9
20260506095312 16 240 3.2 4.8 0.00 0.00 0.00 73 1003.7
20260506094809 16 241 1.6 3.2 0.00 0.00 0.00 71 1003.9
20260506094308 16 124 1.6 3.2 0.00 0.00 0.00 71 1003.9
20260506093806 16 272 1.6 1.6 0.00 0.00 0.00 70 1003.9
20260506093302 16 223 6.4 6.4 0.00 0.00 0.00 70 1003.7
20260506092801 16 266 1.6 3.2 0.00 0.00 0.00 70 1003.9
20260506092258 16 185 1.6 3.2 0.00 0.00 0.00 70 1004.1
20260506091755 16 144 4.8 6.4 0.00 0.00 0.00 69 1004.0
20260506091252 17 197 6.4 9.7 0.00 0.00 0.00 68 1004.1
20260506090750 16 295 1.6 3.2 0.00 0.00 0.00 69 1003.9
20260506090247 16 215 8.0 9.7 0.00 0.00 0.00 68 1004.1
20260506085744 16 151 3.2 3.2 0.00 0.00 0.00 68 1004.1
20260506085240 17 148 3.2 3.2 0.00 0.00 0.00 67 1004.0
20260506084736 16 170 4.8 4.8 0.00 0.00 0.00 67 1004.1
20260506084233 16 160 3.2 4.8 0.00 0.00 0.00 67 1004.3
20260506083730 16 171 3.2 3.2 0.00 0.00 0.00 67 1004.3
20260506083228 16 159 1.6 3.2 0.00 0.00 0.00 67 1004.4
20260506082725 16 162 3.2 3.2 0.00 0.00 0.00 66 1004.0
20260506082220 16 226 3.2 4.8 0.00 0.00 0.00 68 1004.2
20260506081718 16 288 1.6 3.2 0.00 0.00 0.00 68 1004.2
20260506081215 16 322 0.0 1.6 0.00 0.00 0.00 66 1004.2
20260506080713 16 317 0.0 0.0 0.00 0.00 0.00 64 1004.1
20260506080204 16 319 0.0 1.6 0.00 0.00 0.00 64 1004.2
20260506073148 16 5 0.0 1.6 0.00 0.00 0.00 66 1004.3
20260506072644 16 22 0.0 0.0 0.00 0.00 0.00 64 1004.4
20260506072143 16 296 1.6 1.6 0.00 0.00 0.00 62 1004.5
20260506071640 16 335 0.0 0.0 0.00 0.00 0.00 63 1004.5
20260506071138 16 318 0.0 0.0 0.00 0.00 0.00 62 1004.5
20260506070634 17 329 0.0 0.0 0.00 0.00 0.00 60 1004.5
20260506070131 17 296 0.0 1.6 0.00 0.00 0.00 59 1004.6
20260506062109 17 161 3.2 4.8 0.00 0.00 0.00 56 1005.0
20260506061604 17 182 4.8 6.4 0.00 0.00 0.00 56 1005.2
20260506061102 17 153 3.2 3.2 0.00 0.00 0.00 57 1005.1